Wind_Speed
51 52 52 50 49 49 48 45 43 39 38 38 37 37 40 42 41 40 39 39 40 39 38 35 32 32 32 32 33 33 33 34 33 31 30 29 29 28 27 26 26 26 26 24 21 22 23 22 22 20 19 19 20 20 20 19 18 16 15 14 14 14 16 18 19 19 19 19 18 17 16 15 15 15 15 15 16 17 18 19 21 22 23 23 23 23
51 52 50 50 50 49 47 45 43 40 39 38 36 36 38 41 41 40 40 40 40 40 39 36 33 32 32 33 36 36 36 35 33 32 30 30 29 28 28 27 27 27 26 23 22 21 21 22 21 20 20 20 20 20 20 19 18 16 14 13 14 15 16 18 19 19 19 19 18 17 16 15 15 15 15 16 17 18 19 20 21 22 23 23 23 23
51 50 49 51 51 50 48 46 44 41 39 38 37 35 35 38 40 40 40 40 41 40 39 37 34 32 33 35 37 38 38 34 33 34 31 30 29 28 28 28 27 27 23 22 21 20 20 21 20 20 20 20 21 20 19 19 18 16 15 14 15 15 16 18 19 20 19 18 18 17 16 16 16 16 16 17 17 18 19 20 22 23 23 23 24 24
50 50 50 52 52 50 49 47 45 42 41 40 38 36 34 34 37 40 40 40 42 41 39 37 34 33 35 37 38 39 38 35 34 35 32 30 29 28 27 28 26 22 19 19 19 19 19 20 20 20 20 20 20 20 19 18 18 17 15 14 15 16 17 18 19 19 18 18 18 17 17 17 17 16 16 17 18 19 20 21 22 23 24 24 24 25
50 50 50 52 51 50 49 48 46 44 42 41 39 36 33 31 34 39 41 41 42 41 38 36 34 35 37 38 39 38 37 36 36 36 32 30 30 29 28 29 26 21 19 20 19 19 20 20 20 19 19 19 20 19 19 18 18 17 16 15 15 15 16 18 18 18 18 18 18 17 17 17 17 17 17 17 18 19 20 21 23 24 24 25 25 25
51 51 51 51 50 49 48 48 46 44 42 41 39 36 32 30 32 36 40 42 42 40 37 36 36 37 37 38 39 38 37 37 36 34 31 29 29 29 28 28 27 25 23 22 21 21 20 19 18 18 19 20 20 20 20 19 18 17 16 15 14 15 16 17 17 18 18 18 18 18 18 18 18 17 17 18 18 19 20 22 24 24 25 25 25 25
51 52 51 50 49 48 49 48 46 45 43 41 39 35 31 30 31 34 39 43 42 40 39 38 38 38 38 39 39 38 38 36 34 32 30 29 28 27 27 27 27 27 25 23 22 20 19 18 18 19 20 21 21 21 20 20 19 18 17 15 14 15 16 17 17 18 18 18 19 19 18 18 18 18 18 18 19 20 21 22 24 25 25 25 25 25
51 53 52 51 50 49 50 49 47 45 44 42 38 34 31 30 31 33 37 42 41 40 41 40 40 39 38 39 40 39 37 36 35 33 31 29 28 27 26 26 26 27 25 23 22 21 20 22 22 22 22 22 22 22 22 21 21 20 19 17 16 16 17 17 18 18 18 19 19 19 18 18 19 19 19 19 20 21 22 23 25 25 25 25 25 25
52 53 52 51 51 51 50 49 46 45 44 42 37 34 32 32 32 33 36 40 39 40 42 42 41 41 39 38 39 39 38 37 36 33 29 28 26 25 25 25 26 27 26 24 24 24 26 26 22 19 20 21 22 22 23 23 22 22 21 18 16 16 17 18 18 19 19 19 19 19 19 19 19 20 20 20 21 22 22 23 25 25 25 25 25 24
52 52 51 51 50 49 49 47 45 44 44 41 37 35 34 34 34 35 37 38 39 42 43 41 41 42 40 39 39 39 40 38 35 31 28 26 25 25 25 26 25 25 26 27 27 28 27 22 16 12 13 17 19 20 22 24 24 23 21 18 16 16 17 18 19 19 19 19 19 19 19 20 20 20 21 21 22 23 23 23 24 24 25 25 24 23
51 50 50 50 49 48 47 46 45 44 43 40 37 36 35 35 35 37 37 38 40 42 40 39 41 42 42 41 40 40 39 37 35 33 30 28 28 28 27 25 24 23 25 28 30 28 23 19 14 10 10 14 17 19 22 26 27 25 21 18 16 16 17 18 19 19 19 19 19 20 21 21 21 21 22 22 23 24 24 24 24 24 24 24 24 24
51 51 51 50 49 49 48 47 46 45 44 42 39 37 37 37 37 38 39 39 41 40 36 38 41 43 43 42 42 41 38 37 36 34 31 28 29 29 28 25 22 21 24 28 28 24 20 19 14 9 10 14 17 18 20 24 28 27 23 18 16 15 16 18 19 19 19 20 20 21 22 22 22 22 23 23 24 25 25 25 24 24 24 24 24 23
52 51 50 49 49 50 49 48 48 48 47 44 41 40 40 41 41 42 42 43 42 38 35 37 41 44 43 41 42 42 40 38 36 32 28 27 29 28 26 23 20 20 22 23 24 23 21 19 14 10 11 13 15 16 17 17 20 26 26 20 16 15 16 17 18 19 20 21 22 23 23 23 23 24 24 24 25 26 26 26 25 24 24 24 24 23
53 51 50 50 50 50 50 49 49 50 49 47 44 44 44 45 45 45 44 44 42 38 36 37 41 43 42 40 41 42 39 38 36 30 24 25 28 26 22 20 20 21 20 18 20 23 24 20 12 9 11 12 13 14 16 15 14 19 24 21 16 15 16 17 18 19 21 22 24 24 24 24 24 24 25 25 26 27 28 27 27 25 24 24 24 24
53 52 52 52 50 50 50 50 48 47 47 45 43 44 45 45 44 44 43 42 41 39 37 38 41 43 41 39 40 39 37 36 34 29 24 25 28 26 23 22 23 24 21 18 19 21 25 23 15 10 10 11 12 13 17 19 16 16 19 18 15 15 18 19 20 21 23 24 25 25 25 25 25 26 27 27 27 28 28 28 28 27 26 25 25 25
51 51 51 51 50 49 49 50 48 47 46 44 43 44 46 45 44 43 41 40 39 39 38 39 42 42 39 36 36 37 37 35 34 30 24 25 28 28 27 26 27 26 22 20 18 16 19 22 19 15 13 12 13 14 17 20 19 18 18 17 17 18 20 21 22 23 24 25 25 25 26 26 27 28 28 28 28 29 29 28 28 28 27 27 26 26
49 49 48 48 48 48 48 48 48 47 47 46 46 47 47 46 44 42 41 41 41 41 40 41 42 40 37 36 35 37 37 35 34 30 25 27 30 29 28 29 28 26 23 21 20 17 16 17 17 18 17 15 14 13 15 17 17 17 19 18 19 20 21 21 22 23 24 24 24 26 27 27 28 29 29 29 29 29 29 28 28 28 28 28 27 27
46 46 46 47 47 46 46 47 46 46 46 45 46 47 46 43 43 43 42 43 44 42 41 41 42 41 39 37 35 36 37 35 34 31 27 30 33 31 29 29 27 25 24 23 22 21 19 18 18 19 19 16 13 12 13 13 14 15 16 17 18 20 21 21 22 23 24 25 25 27 28 28 29 30 30 30 30 30 29 29 29 29 29 29 28 27
43 43 43 45 45 44 45 46 46 47 46 45 45 45 44 43 46 46 45 45 45 44 42 42 43 42 41 38 34 35 36 35 33 31 29 31 33 32 30 28 26 24 24 24 24 24 23 22 22 22 22 18 14 14 14 11 10 12 13 14 16 18 20 20 21 23 25 26 26 27 28 29 30 31 31 31 30 30 30 30 30 30 29 30 29 27
42 41 41 42 42 43 45 47 48 49 49 48 47 46 45 44 46 46 45 45 45 44 43 42 43 43 41 38 34 35 35 34 33 30 29 29 30 30 29 28 26 25 25 25 26 26 26 26 25 22 21 18 15 16 15 11 10 11 13 15 16 18 19 21 22 24 25 26 27 28 29 30 31 32 32 32 32 31 31 31 31 30 30 30 29 27
39 39 40 41 41 43 46 48 48 48 49 50 49 48 48 48 47 45 45 45 44 43 43 43 43 42 41 39 36 35 35 34 33 31 30 29 28 28 28 27 26 26 27 28 27 27 27 26 24 22 22 19 16 16 14 12 11 11 13 16 18 19 20 22 23 25 26 27 28 29 30 32 33 33 33 33 33 32 31 31 31 30 30 30 29 27
38 37 39 40 41 43 44 45 45 45 46 47 48 47 47 49 48 46 47 46 45 44 44 45 44 41 40 40 37 36 35 35 36 35 33 31 29 29 28 26 26 27 28 29 26 26 29 27 22 23 25 21 19 18 15 14 13 13 14 16 18 20 21 23 24 25 26 27 29 30 32 33 34 34 34 34 33 32 31 31 30 30 30 29 28 26
36 36 38 39 40 41 41 42 43 43 42 44 46 46 45 47 48 48 47 46 45 45 45 45 44 42 40 40 39 37 36 35 36 36 34 32 31 30 29 27 26 27 29 29 25 24 29 30 24 22 22 20 19 20 18 16 16 16 17 18 19 20 22 23 24 25 27 28 30 31 33 34 35 35 35 34 33 31 31 31 30 30 29 29 27 25
36 35 37 38 39 40 39 40 42 42 42 44 46 47 46 47 48 48 46 44 44 46 46 45 44 43 41 40 39 39 37 36 36 36 35 34 33 31 30 28 26 26 28 30 30 27 27 27 25 22 21 20 21 22 20 19 19 19 19 19 20 21 23 24 24 25 27 29 31 32 34 35 36 36 35 34 33 32 32 32 30 29 29 27 26 24
35 35 37 39 40 41 41 41 42 44 44 44 46 47 47 46 47 48 47 45 45 46 46 45 44 43 42 40 39 39 38 37 36 35 35 35 34 32 30 28 27 26 27 28 31 32 30 28 26 24 23 23 24 24 23 22 22 21 21 20 20 22 23 24 24 26 28 30 32 33 35 36 36 36 35 34 33 33 32 32 30 29 28 26 25 24
34 34 36 39 40 41 43 43 44 45 45 45 45 45 46 46 47 49 49 48 48 47 47 47 45 43 42 42 41 39 39 38 36 35 35 36 35 34 32 30 28 28 29 29 29 29 32 32 29 26 25 26 26 25 25 25 24 23 23 22 22 23 25 25 26 27 29 31 33 35 36 36 36 36 35 34 34 33 33 32 30 29 27 25 24 23
34 33 35 38 39 40 41 42 43 43 44 45 44 44 46 46 46 48 50 50 49 47 47 47 46 44 43 42 41 40 39 38 37 36 36 36 35 34 33 32 30 30 33 33 30 29 30 31 29 28 27 27 27 27 27 28 27 26 25 23 24 26 27 28 29 29 31 32 34 36 36 36 36 35 35 35 35 34 33 31 30 28 26 25 24 23
36 34 35 36 37 39 40 41 41 42 42 43 43 43 44 45 46 48 50 50 48 47 47 46 46 45 44 43 41 40 39 38 38 37 36 35 35 34 33 32 31 31 33 34 32 29 28 28 28 28 28 28 28 28 29 30 30 29 28 26 27 28 29 30 31 31 32 34 35 36 37 36 36 35 35 35 35 34 33 31 29 28 26 24 23 22
36 35 36 36 35 37 40 40 40 41 42 43 42 42 43 44 46 47 48 48 48 48 47 45 45 45 44 43 42 40 39 37 37 37 37 36 36 35 34 34 32 31 30 31 30 28 26 26 27 28 29 29 30 32 34 35 33 31 29 28 29 30 31 31 31 32 33 35 36 37 37 37 36 36 36 36 35 34 33 31 29 27 25 24 23 22
37 36 37 37 35 37 40 40 40 41 43 43 43 42 43 44 45 46 46 47 48 48 47 45 45 45 45 45 44 43 41 39 38 38 38 38 37 36 35 36 36 35 33 32 31 29 28 29 29 31 32 32 34 36 38 36 33 31 30 30 31 32 32 33 33 33 34 36 36 36 37 37 36 36 36 36 35 34 32 30 28 27 25 23 22 22
38 38 38 38 37 37 40 41 41 42 44 44 44 44 44 44 45 45 46 47 47 48 47 46 46 45 45 46 46 45 44 43 42 41 40 39 39 39 38 37 37 37 36 36 36 37 36 34 34 35 36 37 38 39 37 34 32 32 32 32 33 33 34 34 34 34 35 36 36 36 37 37 36 36 36 36 35 33 31 29 28 26 25 23 22 21
38 38 39 40 39 38 40 41 41 41 43 44 44 45 45 45 45 45 45 46 46 46 46 46 45 45 44 45 46 46 45 45 44 43 42 42 41 41 40 40 40 40 39 39 39 41 40 37 36 37 37 37 39 40 37 34 34 34 33 33 33 34 34 34 35 35 35 36 36 36 37 37 36 36 36 36 34 32 30 29 27 26 25 24 23 22
38 38 39 41 40 39 39 41 41 40 41 43 45 46 46 46 45 45 45 45 44 44 44 44 43 43 44 44 44 45 45 45 44 44 43 43 43 43 43 42 42 41 41 42 43 43 41 37 35 35 35 35 37 38 37 35 34 33 33 32 33 33 33 33 34 34 35 36 36 36 37 36 36 36 36 35 33 31 30 28 27 26 25 24 24 23
39 39 38 40 42 40 39 40 42 42 41 42 43 45 47 48 47 46 45 45 44 43 42 41 40 42 43 44 44 44 44 44 43 43 43 43 44 44 45 45 45 41 38 38 38 37 36 34 34 34 35 35 35 35 35 34 33 33 33 33 33 33 33 33 33 34 34 35 35 36 36 36 35 35 35 34 32 30 28 27 26 26 25 25 25 24
37 39 39 40 41 41 40 39 41 44 43 40 41 43 45 47 48 47 46 45 44 42 41 40 40 40 41 42 43 44 44 44 44 43 43 44 43 40 38 39 40 39 37 36 35 34 33 34 35 35 35 34 34 34 34 33 32 33 34 34 34 33 33 33 33 33 33 34 35 35 36 35 35 35 34 33 31 29 27 26 26 26 25 25 25 24
31 37 40 39 39 41 42 40 41 43 43 42 42 42 43 44 45 46 45 44 43 43 41 40 40 40 39 39 41 43 43 44 43 43 42 42 43 40 36 33 30 28 30 33 36 36 35 34 34 34 34 34 34 34 34 33 33 34 34 34 34 34 33 32 31 32 32 33 34 35 35 35 34 34 33 32 30 28 27 27 26 26 25 25 24 24
24 31 39 41 40 40 42 42 41 41 42 44 44 43 42 42 43 43 43 43 43 42 41 41 41 40 39 38 39 40 41 41 42 43 43 42 43 42 40 38 32 28 28 30 32 33 32 31 32 32 33 35 36 36 35 35 34 34 33 33 33 33 32 31 31 31 32 33 34 34 34 34 33 32 32 30 29 29 28 27 26 26 25 24 23 23
19 23 31 39 41 41 41 41 43 42 40 40 41 43 43 42 42 43 43 44 43 42 41 41 41 40 39 38 39 39 39 40 40 40 41 42 43 42 39 37 34 33 31 28 28 29 30 31 31 32 35 37 37 36 36 36 36 34 32 32 32 31 31 31 31 31 32 33 33 33 33 33 32 31 30 30 29 29 28 27 26 25 24 23 23 22
19 18 22 31 39 42 41 41 41 42 40 37 37 41 42 42 41 42 43 45 44 43 43 42 41 41 41 39 39 39 39 38 37 37 37 39 41 42 39 36 33 33 33 31 30 29 28 28 29 30 34 38 37 35 35 36 35 33 31 31 30 30 30 30 31 31 32 32 32 32 32 31 30 30 29 29 29 28 27 26 24 24 23 23 22 22
20 19 19 23 30 37 42 42 39 38 39 38 38 39 40 41 41 42 44 44 42 43 43 42 42 42 43 42 41 41 41 38 36 35 35 36 38 39 39 37 34 32 33 35 34 32 31 31 30 29 30 34 35 33 30 30 29 29 29 30 30 30 30 31 31 31 31 31 31 31 30 30 29 28 28 28 27 26 25 24 24 23 23 22 22 22
19 20 19 19 21 26 34 39 40 38 37 38 37 36 37 39 41 43 42 40 38 39 41 41 41 41 42 42 41 41 41 39 37 37 37 36 36 36 37 37 36 35 35 35 36 35 34 32 31 29 26 27 28 26 23 23 25 26 28 29 29 30 30 30 30 30 29 29 29 29 29 28 27 27 27 26 26 25 24 23 23 23 22 22 22 22
19 20 20 19 19 20 23 28 33 36 36 36 36 35 36 37 39 38 37 35 36 37 38 38 38 38 39 40 39 40 42 42 40 40 39 38 36 35 34 35 35 35 35 34 35 35 34 32 31 29 26 25 26 24 22 23 24 26 27 28 28 28 28 28 28 28 28 28 28 28 28 27 27 27 26 26 25 24 23 22 22 22 22 22 22 22
19 20 20 20 20 20 19 20 22 25 27 30 32 32 33 34 35 34 33 34 35 34 33 33 33 33 35 37 37 39 42 43 43 41 40 39 37 36 35 35 34 35 35 35 34 34 33 32 31 28 26 26 26 24 22 23 24 25 26 26 26 26 26 26 26 27 27 27 27 27 27 27 27 27 26 25 24 23 22 22 22 22 22 22 22 22
19 21 22 22 21 21 19 17 16 17 19 22 24 26 27 30 32 32 32 32 31 30 29 28 28 28 30 32 34 36 39 42 44 44 42 40 35 31 30 31 31 31 33 36 36 35 34 32 30 28 27 25 23 22 22 23 23 23 24 24 24 25 25 26 26 27 27 27 26 26 26 26 26 25 25 24 24 23 23 22 21 21 21 21 21 20
17 21 22 23 23 21 20 18 17 17 19 20 21 24 25 24 25 27 27 26 26 27 27 27 27 26 27 29 31 34 35 38 41 42 41 38 34 29 27 26 25 25 27 31 34 34 33 31 27 26 26 24 23 23 23 23 23 23 23 24 25 25 26 26 27 27 26 26 25 25 25 24 23 23 23 23 23 23 22 21 21 20 20 19 19 19
15 18 22 25 25 23 22 21 19 19 19 20 21 24 25 21 18 20 23 23 23 24 25 25 26 27 27 28 30 31 32 32 34 36 35 33 33 32 31 30 29 28 27 27 30 31 30 26 23 23 24 24 24 24 23 23 23 23 24 25 26 26 27 27 26 26 25 25 25 24 22 21 21 21 21 21 21 21 21 21 21 20 20 19 19 18
15 16 19 23 26 26 25 23 20 20 20 20 21 23 24 21 16 15 19 21 21 21 20 21 23 24 25 26 27 27 27 28 28 28 28 29 30 31 31 32 32 31 28 25 25 27 26 24 23 24 24 24 24 24 23 23 24 24 25 26 26 26 26 26 25 25 25 24 23 22 21 20 20 20 21 21 21 21 21 21 21 20 19 19 18 18
16 16 17 20 23 25 26 25 23 22 22 21 22 23 23 21 17 15 17 20 20 20 19 18 20 22 22 23 25 25 26 27 27 27 26 26 26 26 26 28 30 30 27 24 23 24 24 23 24 24 23 23 23 23 23 24 25 25 26 26 26 26 26 25 25 25 24 22 21 21 21 21 21 21 21 21 21 20 20 20 19 19 18 18 18 19
17 17 17 19 20 22 23 24 25 25 24 23 24 24 24 22 20 19 19 20 21 21 20 20 20 22 23 24 25 26 26 27 27 26 25 24 23 23 25 26 27 27 25 24 24 24 23 23 23 23 23 22 22 22 23 24 25 25 26 26 26 26 26 25 24 23 22 21 21 21 21 21 21 20 20 19 19 18 18 18 18 18 18 19 19 20
16 17 18 19 21 22 24 25 25 25 25 25 25 25 25 24 23 22 22 22 22 22 22 22 22 23 24 25 25 25 26 26 25 24 24 23 22 21 22 23 24 23 23 24 24 24 23 23 23 23 23 22 22 23 25 25 26 26 26 26 26 25 24 23 22 21 21 21 21 21 21 20 19 18 17 16 16 16 16 17 17 18 19 19 20 20
13 13 14 17 20 22 24 25 25 25 24 24 24 25 26 26 25 24 23 24 25 25 24 24 24 24 24 25 26 25 25 24 23 22 22 23 22 20 20 20 21 22 23 24 24 24 24 24 24 24 24 23 24 25 26 26 26 26 26 25 25 24 23 22 21 21 21 22 22 21 20 19 18 17 16 16 16 17 18 19 19 20 20 20 21 21
Wind_Direction
220 220 221 221 222 222 221 221 223 225 226 226 223 220 217 216 216 219 221 223 224 225 224 220 218 221 225 230 235 236 237 238 238 240 240 240 239 239 240 240 239 240 240 238 233 229 226 228 232 235 237 240 243 246 247 245 242 240 242 244 244 243 242 243 245 246 247 248 250 253 258 265 270 275 282 288 293 297 299 301 300 295 289 286 284 284
220 221 220 220 221 222 221 220 221 221 223 226 224 220 218 215 214 216 220 223 225 226 226 222 218 218 221 226 232 235 236 237 237 238 240 240 237 235 236 236 237 237 237 237 236 232 229 229 232 235 236 238 240 243 245 244 241 239 239 242 243 243 243 244 245 246 248 250 253 257 263 268 273 279 285 289 292 296 299 302 300 295 290 287 285 284
222 221 219 219 219 219 219 218 218 219 221 224 224 221 219 216 213 214 218 222 225 226 226 224 219 217 219 222 228 234 236 237 237 234 234 236 234 231 232 233 234 235 234 234 235 234 231 230 232 234 234 236 238 240 242 243 241 238 238 240 242 242 243 243 245 246 248 252 256 261 266 271 276 281 284 288 292 296 300 302 301 297 292 288 286 286
223 222 219 218 218 217 217 217 216 216 218 221 222 220 218 216 213 212 215 220 225 225 225 225 220 217 218 221 224 229 234 235 234 230 228 229 229 227 227 228 227 226 227 230 232 232 231 231 231 231 233 236 239 240 241 241 241 239 237 238 240 241 242 243 245 248 250 254 258 263 268 273 277 281 285 289 293 296 300 302 302 299 295 290 288 287
223 223 220 219 219 217 217 216 215 215 216 219 220 219 216 215 213 212 213 218 224 225 224 224 222 218 219 222 225 229 234 234 230 227 225 225 225 222 221 221 218 213 215 220 222 224 226 226 228 230 234 237 240 242 243 243 242 241 238 237 240 241 242 244 246 249 253 256 261 265 269 273 277 281 286 290 293 296 299 302 301 299 296 292 290 289
221 221 219 220 219 218 217 216 215 214 215 218 220 218 214 213 213 211 212 216 221 224 222 222 221 219 219 224 228 231 233 231 229 227 226 226 226 223 222 220 216 212 212 214 217 220 221 222 226 229 232 236 240 242 243 244 244 242 239 237 239 242 243 245 249 252 256 259 262 266 269 274 278 282 286 288 291 295 298 300 301 300 297 294 292 291
221 220 218 218 218 217 217 217 215 214 214 216 218 217 213 210 212 211 211 215 219 221 221 220 220 219 218 223 228 230 230 230 229 227 226 227 226 225 224 221 219 218 215 215 217 218 217 218 221 224 229 235 238 241 243 242 242 240 238 236 238 243 246 249 252 255 259 261 264 267 271 276 280 283 286 287 290 294 297 300 301 301 299 296 293 292
220 220 217 216 216 215 216 216 215 214 213 214 215 215 211 209 211 210 211 215 217 219 220 220 220 219 217 221 225 227 228 228 227 225 223 225 224 224 224 221 221 223 221 217 212 210 213 216 220 221 225 232 235 238 241 242 242 240 238 237 240 245 250 253 256 258 261 263 266 270 275 279 284 287 287 288 291 295 299 302 303 303 301 297 294 293
218 220 217 216 216 215 214 214 214 213 213 212 212 213 209 207 210 209 210 214 215 217 220 220 221 220 218 220 224 226 227 227 226 225 222 223 223 224 224 220 219 224 226 220 211 210 216 219 224 226 226 233 238 240 242 242 242 242 240 240 243 249 254 256 258 260 262 266 271 276 281 285 287 288 288 290 294 298 301 303 304 304 302 299 297 295
218 219 218 216 216 215 214 214 213 212 213 211 209 210 208 206 207 207 208 211 214 216 218 218 220 221 219 220 224 226 227 227 227 226 224 223 222 223 224 219 218 223 227 224 217 216 220 225 234 242 239 241 244 247 251 250 246 245 244 243 245 250 255 258 260 262 267 272 278 283 285 287 288 289 291 293 295 298 300 302 304 305 304 301 298 296
217 219 218 216 215 215 214 213 212 211 211 209 207 208 207 205 205 206 207 209 213 215 214 214 219 221 219 218 223 227 228 229 229 227 225 224 223 224 223 219 219 224 228 229 222 217 224 235 241 249 251 249 247 249 252 252 250 247 244 242 244 251 257 261 264 267 273 278 282 285 287 288 289 290 292 293 294 296 298 302 305 307 306 304 302 299
215 217 218 215 213 213 212 212 210 210 210 207 204 205 205 204 204 206 206 208 213 213 208 211 217 221 219 217 220 226 229 230 231 230 228 226 226 228 226 222 221 223 230 230 218 211 220 228 231 247 264 258 254 249 242 242 246 244 241 239 241 250 258 262 266 270 275 279 283 287 288 289 290 291 292 292 294 296 299 303 306 308 309 307 304 301
214 215 216 215 213 212 211 210 209 208 208 206 202 201 203 203 203 205 206 209 213 210 204 207 214 219 220 216 217 223 227 230 234 233 228 224 225 225 224 222 219 221 232 227 210 206 212 212 215 236 255 257 254 247 235 234 239 237 235 235 238 247 255 261 267 271 275 279 284 287 288 288 289 290 292 294 296 298 300 303 307 310 310 307 304 300
211 212 214 214 213 211 211 210 210 209 208 205 201 201 204 205 204 205 207 210 213 208 202 204 212 218 219 215 215 221 226 229 233 232 224 218 218 217 216 218 217 221 231 227 214 218 221 214 213 234 248 255 252 241 233 234 235 229 228 230 233 243 253 259 265 269 274 279 283 285 285 286 288 290 293 295 297 297 299 302 306 310 312 309 304 300
210 209 210 212 212 211 211 211 210 211 210 207 203 203 206 208 209 209 209 212 214 210 204 204 211 216 217 214 213 218 224 227 231 230 221 212 207 203 205 212 217 223 231 231 225 228 227 223 231 251 253 254 255 249 243 241 236 225 223 226 231 242 250 256 262 267 272 276 280 283 285 287 290 291 292 294 295 296 298 302 306 311 314 311 306 302
212 211 210 211 211 210 210 210 209 208 208 207 204 204 207 209 210 209 210 213 215 214 209 208 212 217 217 214 212 215 221 225 229 229 220 208 199 196 201 208 215 222 230 232 228 226 227 231 238 241 242 249 251 253 254 245 234 228 226 225 231 240 248 255 260 265 270 274 279 283 286 288 289 289 291 293 294 295 298 301 306 311 314 313 308 304
211 211 210 211 211 210 209 210 209 208 207 205 203 205 207 208 208 208 209 211 214 215 213 212 215 217 217 216 212 212 218 222 226 228 218 203 197 197 204 210 214 221 227 231 230 228 232 238 233 227 237 248 241 244 254 244 229 227 230 230 235 242 248 255 261 266 271 276 280 283 285 286 287 289 291 293 294 296 298 302 306 311 314 313 309 305
209 208 208 209 210 209 208 209 209 209 209 208 206 206 205 205 207 209 209 210 212 215 215 215 216 217 217 217 212 210 215 219 224 227 215 201 199 201 206 211 215 220 225 230 231 230 231 236 231 228 240 247 242 250 255 240 226 226 234 241 246 249 252 256 262 268 273 277 280 282 284 286 288 290 291 293 294 297 300 304 307 310 312 312 309 306
207 206 206 208 209 207 207 208 208 207 207 207 209 208 205 206 210 210 209 210 212 214 215 216 217 217 218 218 213 210 214 219 223 225 217 206 203 204 206 209 212 218 224 229 232 231 230 231 231 233 243 248 254 262 257 249 247 246 254 264 262 260 260 260 264 269 273 276 279 281 283 286 288 290 292 294 296 299 302 304 306 308 310 311 310 307
206 204 204 206 207 206 205 206 207 208 207 204 206 206 204 208 213 213 213 213 213 215 217 218 218 217 219 219 214 211 213 217 221 223 221 213 207 205 207 209 212 220 227 229 232 232 230 231 233 238 245 250 256 259 259 268 278 274 278 279 273 271 269 267 268 270 272 275 278 281 284 286 289 292 294 296 298 300 301 302 304 307 309 310 309 307
205 203 203 203 204 205 205 206 206 209 209 207 206 205 203 205 210 212 214 215 215 217 219 221 221 219 219 220 217 214 213 215 218 219 218 215 209 207 210 214 220 227 231 232 234 235 234 236 239 241 246 252 258 262 267 279 288 288 283 278 276 275 273 272 271 271 273 276 279 282 285 288 291 293 295 297 298 299 300 302 305 306 307 309 308 306
202 201 203 203 203 204 206 206 205 208 211 211 210 208 205 206 208 209 212 214 214 217 219 221 223 220 219 220 221 220 217 217 219 219 217 213 210 211 215 222 228 230 232 232 233 236 238 238 239 242 245 251 259 263 268 276 281 281 276 273 273 273 273 273 272 273 275 277 279 282 285 288 291 293 295 297 298 299 301 303 305 305 305 307 307 305
200 200 202 202 203 203 204 205 204 206 209 211 212 210 208 208 209 210 213 214 214 217 219 221 223 221 219 220 221 221 219 217 218 219 218 216 215 217 222 227 228 228 233 234 232 237 241 239 239 245 250 254 260 264 267 273 275 272 269 268 270 271 271 271 272 273 274 275 278 281 285 288 291 293 296 297 298 301 304 305 304 303 304 305 305 304
199 198 200 200 199 200 202 203 203 204 206 209 210 209 207 209 210 211 213 214 216 219 220 222 223 222 221 220 220 220 219 216 215 218 220 223 224 225 229 232 229 230 235 235 234 239 244 241 237 242 251 258 261 263 266 271 274 271 268 269 271 271 270 269 271 272 272 274 277 280 284 287 290 293 295 297 299 302 306 305 303 301 302 304 304 303
198 197 198 198 197 197 199 200 200 202 205 207 209 209 208 208 209 210 212 212 215 218 220 222 223 223 223 223 222 221 220 218 217 219 222 227 231 231 234 237 235 236 239 235 231 233 235 236 238 242 249 256 260 263 265 269 272 270 267 269 273 273 270 270 270 270 271 274 276 280 283 286 290 292 294 297 299 303 306 304 301 300 301 302 302 300
198 196 197 198 198 197 199 200 200 201 204 206 207 208 208 208 209 210 211 212 213 215 218 221 222 222 224 225 225 224 224 223 222 222 224 228 231 233 234 237 237 239 242 238 231 228 228 231 239 244 248 253 259 263 265 267 269 267 266 270 275 277 275 272 270 270 271 273 275 278 282 286 289 291 294 297 300 303 304 301 299 298 299 299 299 297
194 194 196 198 198 199 201 202 201 202 204 206 207 207 208 208 209 210 212 214 214 215 217 220 220 221 223 225 227 227 228 229 228 228 228 229 232 234 236 239 241 243 246 242 233 229 229 232 239 245 250 256 261 263 264 266 267 265 265 271 276 278 275 272 270 270 271 272 275 278 282 286 288 291 295 298 300 302 302 299 297 297 297 297 296 295
193 191 194 194 195 199 201 202 201 202 204 206 207 207 207 208 209 211 213 214 215 216 218 220 220 221 222 224 227 229 230 232 233 234 234 234 235 236 237 239 242 244 246 244 236 231 233 238 244 251 255 259 260 261 263 266 266 263 263 269 274 275 273 270 269 269 271 272 274 278 282 285 288 292 295 297 299 300 299 297 296 296 296 295 295 294
193 190 191 191 192 197 201 201 200 201 203 206 206 207 207 208 210 212 214 215 216 217 219 221 222 222 223 224 226 228 230 231 233 235 237 237 238 238 237 238 240 242 242 239 234 231 235 244 253 257 259 259 260 263 266 267 264 261 261 266 271 271 270 268 268 270 271 272 274 278 282 285 289 292 295 296 298 299 297 296 296 296 296 295 293 292
191 189 190 190 190 195 200 200 199 199 202 204 205 205 206 208 209 211 213 214 216 218 219 220 222 223 223 224 225 226 228 229 230 232 234 237 239 240 239 239 242 245 245 240 238 242 248 254 259 261 260 261 263 265 264 263 261 259 261 267 269 269 268 267 268 270 271 272 274 277 281 285 289 292 294 296 297 297 296 295 296 296 296 295 293 291
191 190 190 190 191 195 200 201 200 200 201 202 203 205 205 206 208 209 211 213 215 218 219 220 222 223 224 225 226 227 228 230 231 232 234 236 239 240 242 243 244 246 247 246 247 252 256 259 262 263 263 262 264 263 260 259 260 261 264 268 268 268 267 266 267 269 270 271 274 277 281 284 288 291 293 295 295 295 295 295 296 296 296 295 293 291
192 190 190 191 192 196 200 203 203 202 202 202 202 203 205 206 207 208 210 213 215 218 220 221 223 224 226 226 228 229 230 231 233 235 236 238 240 242 244 246 247 249 250 250 249 251 254 258 261 262 262 260 260 260 259 259 262 264 266 267 266 266 265 264 265 267 269 271 273 277 280 284 288 291 292 293 294 294 295 295 296 296 296 294 292 290
193 192 192 192 194 197 199 202 205 206 206 206 204 203 204 205 207 209 211 214 216 217 220 222 223 225 227 228 229 230 231 233 235 237 239 241 243 244 245 247 249 250 249 247 247 250 253 256 257 258 258 257 257 258 260 260 261 263 265 265 264 264 263 263 265 266 268 271 273 276 280 284 288 290 291 292 294 294 295 296 296 296 296 294 292 290
195 195 194 194 197 199 198 200 204 208 209 209 208 207 206 205 207 209 211 213 216 217 219 221 223 224 226 228 230 231 232 233 235 236 238 240 242 244 247 249 249 248 245 244 246 248 249 251 252 253 253 254 255 257 258 260 260 262 264 264 264 264 263 263 265 267 268 270 273 276 280 284 286 288 289 291 293 294 295 295 296 296 296 295 294 293
201 199 197 197 200 203 202 200 204 209 210 210 211 211 210 209 209 210 211 213 215 216 217 219 222 224 225 227 230 232 233 234 234 236 238 240 242 243 244 246 248 245 242 244 246 247 249 252 253 251 250 251 253 255 256 257 260 263 265 265 265 264 263 264 264 266 267 269 273 276 280 283 285 287 289 290 292 293 293 294 294 294 295 295 294 293
208 206 203 199 201 206 207 205 206 209 211 212 213 213 214 214 214 214 214 215 216 216 217 218 221 224 226 228 231 232 234 235 236 237 239 241 243 243 239 239 243 245 244 246 249 250 252 253 252 250 249 250 251 252 253 255 259 263 264 263 262 261 261 262 263 264 267 270 274 277 280 283 285 286 288 289 291 292 292 292 292 292 292 293 292 291
212 211 208 204 203 206 209 209 210 212 213 214 217 218 217 218 220 220 219 218 218 218 219 221 223 225 227 230 233 235 235 237 238 239 240 242 244 245 243 242 245 250 253 254 252 250 249 249 249 249 250 250 250 250 252 255 259 262 262 260 259 258 259 261 263 265 268 271 275 278 281 283 285 285 287 289 291 292 292 291 290 290 290 290 290 290
215 215 212 210 209 208 208 211 215 217 215 215 218 221 221 222 223 224 224 223 222 222 223 225 227 229 230 232 235 237 238 238 240 241 242 243 244 246 248 249 250 251 253 256 255 250 247 247 250 252 252 252 251 251 252 255 257 258 259 256 255 256 258 261 263 266 269 273 276 279 281 282 284 286 288 290 292 292 291 291 289 288 287 287 288 288
218 216 211 211 213 212 211 213 217 220 220 219 220 222 224 225 226 226 227 225 224 226 227 228 230 233 234 235 236 239 241 242 243 245 246 246 245 246 248 251 251 250 253 259 262 260 257 256 258 262 259 255 253 253 253 253 254 254 253 252 253 255 258 261 264 267 270 274 276 278 280 282 285 288 290 291 292 291 291 290 289 287 286 286 286 286
219 218 212 210 213 215 216 217 220 220 220 221 222 223 225 227 228 228 227 225 225 228 231 231 232 235 236 237 237 238 241 243 245 246 246 246 246 247 248 250 251 252 255 261 265 267 269 268 269 271 268 257 251 250 250 249 249 249 249 250 253 255 259 262 265 269 272 274 276 278 281 285 288 290 291 291 291 290 289 289 288 287 286 285 285 285
218 219 215 210 211 214 218 221 224 224 221 220 223 224 225 226 226 225 225 225 226 229 232 234 234 235 237 238 238 238 240 243 243 243 245 246 247 249 250 251 252 253 255 260 265 268 271 271 269 271 269 255 245 244 246 244 244 246 248 251 254 256 260 263 266 269 271 273 276 280 284 287 289 290 290 289 289 288 287 288 288 287 286 285 285 286
213 215 214 210 209 212 215 219 223 226 226 225 226 228 228 227 226 226 227 227 228 230 233 235 236 235 236 237 236 236 238 240 242 243 244 246 248 251 253 254 255 254 255 259 264 266 266 266 266 267 264 253 246 247 248 245 245 247 249 252 254 257 260 263 266 268 271 275 279 283 285 287 287 288 288 287 286 285 285 287 288 288 287 286 286 287
209 211 211 209 209 210 212 215 219 224 228 229 230 231 232 231 230 229 228 228 227 228 230 232 233 233 233 234 234 234 235 237 240 242 243 245 249 253 255 255 255 255 255 256 256 257 259 262 263 263 259 253 248 248 247 245 246 248 249 252 255 258 261 264 267 270 274 278 281 283 284 285 286 286 285 284 283 283 284 287 289 289 288 287 287 288
207 209 209 209 210 210 211 214 215 217 221 224 223 223 225 228 229 228 226 225 224 224 226 229 231 232 232 232 233 234 235 237 239 242 244 247 249 252 254 253 252 252 252 251 251 251 255 260 261 258 254 250 245 244 246 246 246 248 250 253 257 260 263 267 270 274 276 278 279 281 284 286 286 286 285 283 283 282 283 286 289 289 289 288 288 290
214 214 213 212 212 211 210 210 208 208 212 215 211 209 215 222 226 226 225 223 221 222 226 230 232 231 231 232 234 235 236 238 238 241 246 249 247 245 247 249 252 253 251 247 245 246 251 256 257 251 246 243 242 243 244 245 247 249 253 256 260 263 267 269 272 273 275 277 280 283 286 287 287 287 287 286 284 283 281 282 285 287 288 289 290 291
225 223 220 217 215 212 209 208 207 207 210 209 205 206 211 215 217 220 222 223 223 225 229 232 232 229 228 230 232 234 235 237 238 240 243 244 242 243 247 251 256 259 256 247 240 242 247 250 246 240 238 238 240 242 244 247 250 254 257 260 263 266 268 270 271 273 276 279 283 285 286 287 287 287 287 286 284 282 280 279 281 283 286 287 289 289
236 234 229 224 220 217 214 212 212 211 210 207 204 206 209 209 208 209 212 214 216 219 223 225 223 220 220 222 224 227 230 233 234 235 236 238 240 245 249 251 252 253 253 247 239 237 240 238 232 231 234 237 240 243 246 250 254 257 260 263 265 267 269 271 273 275 278 280 282 283 283 284 285 286 286 285 284 282 281 280 281 283 285 286 287 287
240 239 234 228 223 221 219 218 217 215 212 208 204 204 207 208 205 201 201 202 202 206 210 210 208 210 214 217 219 222 226 228 229 231 234 236 239 242 243 244 245 245 245 243 237 231 228 226 226 229 233 237 241 245 250 254 258 261 263 266 267 269 270 272 274 276 277 277 278 279 280 282 284 286 286 286 285 284 283 283 283 283 284 285 286 286
230 230 228 225 221 219 218 218 217 216 215 212 205 201 204 207 206 201 199 198 198 201 204 205 207 211 214 218 222 225 227 227 228 233 235 233 232 234 234 234 237 238 236 233 230 226 224 224 227 232 237 241 246 251 255 258 261 264 266 268 269 270 271 272 274 274 273 274 276 278 280 283 285 286 286 285 285 285 284 284 284 284 285 285 285 285
220 222 222 220 217 214 213 213 213 214 215 214 208 201 201 204 205 204 203 202 202 203 205 208 212 215 218 221 222 224 225 224 224 228 231 227 224 225 227 228 230 232 230 228 227 226 225 227 232 237 242 247 251 255 258 261 264 266 267 268 269 270 271 273 273 271 271 274 277 279 281 282 282 282 282 283 285 286 287 287 287 287 286 286 285 285
208 216 221 222 219 216 214 212 211 209 210 211 209 205 204 204 205 205 205 205 205 206 209 212 214 216 220 220 218 218 219 219 218 219 219 217 215 217 221 222 223 225 227 228 229 228 229 232 236 241 246 250 254 257 259 262 264 265 266 266 267 269 270 271 270 271 272 275 278 279 278 277 276 275 277 281 285 288 289 289 288 287 286 285 284 283
Height
5681 5684 5688 5694 5699 5704 5709 5713 5717 5723 5726 5728 5731 5734 5737 5741 5745 5747 5748 5749 5752 5755 5758 5763 5767 5769 5771 5773 5775 5777 5779 5779 5781 5783 5784 5786 5788 5790 5792 5793 5795 5796 5797 5799 5802 5803 5805 5807 5808 5810 5811 5812 5813 5813 5814 5814 5815 5816 5816 5817 5817 5817 5817 5817 5818 5819 5820 5821 5823 5824 5825 5826 5826 5826 5826 5826 5826 5825 5825 5825 5824 5823 5822 5822 5821 5821
5677 5680 5686 5691 5696 5701 5706 5710 5713 5718 5722 5724 5728 5731 5734 5737 5741 5744 5745 5746 5748 5751 5755 5759 5763 5766 5768 5770 5771 5773 5774 5776 5779 5781 5783 5784 5786 5788 5789 5791 5792 5793 5795 5797 5800 5801 5803 5805 5806 5808 5809 5809 5810 5811 5812 5813 5813 5814 5815 5815 5815 5816 5816 5816 5816 5817 5819 5820 5821 5823 5824 5824 5825 5825 5824 5824 5824 5823 5823 5823 5822 5821 5820 5820 5819 5818
5673 5677 5683 5687 5691 5696 5701 5705 5710 5714 5718 5721 5724 5728 5731 5734 5738 5741 5743 5743 5745 5748 5751 5755 5760 5763 5764 5766 5767 5768 5771 5774 5776 5778 5780 5781 5783 5785 5787 5789 5790 5791 5794 5796 5797 5799 5801 5803 5804 5805 5806 5807 5808 5809 5810 5811 5812 5812 5813 5814 5814 5814 5814 5814 5815 5816 5817 5818 5820 5821 5822 5823 5823 5823 5823 5822 5822 5821 5821 5821 5820 5819 5818 5818 5817 5816
5670 5674 5680 5683 5687 5692 5697 5701 5706 5710 5713 5716 5720 5724 5728 5732 5735 5738 5740 5741 5742 5744 5748 5751 5756 5759 5760 5761 5762 5764 5768 5771 5772 5774 5776 5778 5780 5782 5784 5786 5788 5790 5792 5794 5795 5797 5799 5801 5802 5803 5804 5805 5805 5806 5807 5809 5810 5811 5811 5812 5812 5812 5813 5813 5813 5814 5816 5817 5818 5819 5820 5821 5821 5821 5821 5821 5820 5819 5819 5819 5818 5817 5816 5815 5815 5814
5666 5671 5676 5679 5684 5689 5693 5697 5702 5706 5710 5713 5717 5721 5726 5729 5732 5735 5737 5738 5738 5741 5745 5749 5753 5755 5756 5757 5758 5761 5765 5767 5769 5770 5773 5776 5777 5779 5781 5783 5786 5788 5790 5791 5793 5795 5796 5798 5799 5800 5801 5802 5803 5804 5805 5806 5807 5808 5809 5809 5810 5811 5811 5811 5812 5813 5814 5815 5816 5817 5818 5819 5819 5819 5820 5819 5818 5818 5817 5817 5816 5815 5814 5813 5812 5811
5662 5666 5672 5676 5682 5687 5690 5694 5699 5703 5707 5711 5714 5719 5724 5727 5729 5732 5734 5734 5735 5738 5742 5746 5748 5750 5752 5754 5756 5759 5761 5764 5766 5769 5772 5774 5776 5778 5780 5782 5784 5785 5787 5789 5791 5792 5794 5795 5796 5797 5798 5799 5800 5801 5803 5804 5805 5806 5807 5807 5808 5809 5809 5810 5811 5811 5812 5813 5814 5815 5816 5817 5817 5818 5818 5817 5817 5816 5815 5815 5814 5813 5811 5810 5810 5809
5657 5661 5667 5673 5678 5683 5687 5691 5696 5700 5704 5707 5712 5717 5721 5724 5726 5728 5730 5731 5732 5735 5739 5741 5743 5746 5749 5750 5752 5755 5758 5761 5764 5767 5771 5773 5775 5777 5779 5780 5782 5783 5785 5788 5790 5791 5791 5792 5792 5793 5795 5796 5797 5799 5800 5801 5802 5804 5804 5805 5806 5807 5808 5808 5809 5809 5810 5811 5812 5813 5814 5815 5815 5815 5816 5815 5815 5814 5813 5813 5811 5810 5809 5808 5807 5806
5653 5657 5663 5668 5673 5678 5682 5687 5692 5696 5700 5704 5710 5715 5718 5721 5723 5725 5727 5728 5730 5733 5735 5738 5740 5742 5745 5747 5749 5752 5755 5758 5760 5764 5768 5771 5774 5776 5777 5779 5781 5782 5784 5786 5788 5789 5788 5788 5788 5788 5790 5793 5794 5796 5798 5799 5800 5801 5802 5803 5804 5805 5806 5807 5807 5808 5808 5809 5810 5811 5812 5812 5813 5813 5813 5813 5812 5812 5811 5810 5809 5808 5807 5806 5805 5803
5648 5652 5659 5665 5669 5674 5679 5684 5689 5693 5697 5702 5708 5712 5715 5718 5719 5722 5723 5725 5728 5730 5731 5734 5737 5739 5742 5744 5747 5749 5752 5754 5757 5762 5766 5770 5773 5774 5776 5777 5779 5781 5783 5784 5785 5785 5784 5784 5785 5786 5788 5791 5793 5795 5796 5797 5798 5799 5800 5801 5802 5803 5804 5805 5805 5806 5806 5807 5808 5808 5809 5810 5810 5810 5810 5810 5810 5809 5808 5808 5807 5806 5804 5803 5802 5801
5645 5650 5656 5661 5666 5672 5677 5682 5686 5690 5694 5700 5705 5708 5711 5713 5715 5718 5719 5721 5724 5724 5727 5732 5734 5736 5739 5742 5744 5746 5748 5752 5757 5761 5765 5768 5771 5772 5773 5775 5777 5779 5781 5782 5782 5781 5782 5785 5787 5786 5787 5789 5791 5793 5795 5796 5797 5797 5798 5800 5800 5801 5802 5803 5803 5804 5804 5805 5805 5806 5807 5808 5808 5808 5808 5808 5807 5807 5806 5806 5805 5804 5802 5801 5800 5799
5642 5647 5652 5658 5664 5669 5674 5679 5683 5687 5691 5696 5701 5704 5707 5709 5712 5714 5716 5718 5719 5720 5725 5730 5731 5732 5735 5738 5741 5743 5746 5751 5755 5759 5763 5766 5767 5769 5772 5774 5776 5778 5779 5779 5779 5780 5783 5786 5786 5784 5785 5787 5789 5791 5793 5794 5795 5796 5797 5798 5799 5799 5800 5801 5801 5802 5803 5803 5804 5804 5805 5805 5805 5806 5806 5805 5805 5805 5804 5804 5803 5802 5801 5799 5798 5797
5638 5643 5648 5654 5660 5664 5668 5673 5678 5682 5686 5691 5696 5700 5703 5705 5708 5710 5712 5714 5714 5717 5724 5727 5728 5728 5731 5735 5739 5741 5745 5749 5752 5756 5761 5764 5766 5769 5772 5773 5775 5777 5776 5776 5777 5780 5783 5784 5782 5782 5784 5785 5786 5788 5789 5790 5792 5793 5795 5796 5797 5798 5798 5799 5800 5800 5801 5801 5802 5802 5803 5803 5803 5803 5803 5803 5803 5802 5802 5801 5801 5800 5799 5797 5796 5794
5634 5639 5645 5650 5655 5659 5664 5668 5673 5676 5680 5686 5691 5694 5697 5699 5702 5704 5706 5708 5711 5716 5722 5724 5724 5724 5727 5733 5737 5738 5742 5746 5748 5753 5758 5762 5764 5767 5770 5772 5773 5774 5773 5774 5777 5779 5779 5779 5780 5780 5781 5783 5784 5785 5786 5788 5789 5790 5792 5793 5795 5796 5797 5798 5798 5799 5799 5799 5800 5800 5801 5801 5801 5801 5801 5800 5800 5800 5799 5799 5798 5798 5797 5796 5794 5793
5629 5635 5640 5645 5650 5655 5660 5665 5668 5672 5676 5681 5686 5689 5691 5694 5696 5699 5702 5705 5709 5714 5718 5720 5721 5721 5724 5730 5734 5737 5741 5743 5746 5751 5755 5758 5761 5764 5767 5769 5770 5770 5771 5773 5776 5777 5777 5779 5779 5779 5779 5781 5783 5784 5785 5786 5786 5788 5790 5791 5792 5794 5795 5796 5797 5797 5798 5798 5798 5799 5799 5798 5798 5798 5798 5798 5797 5797 5797 5796 5796 5795 5794 5793 5792 5791
5625 5630 5635 5640 5646 5652 5657 5662 5667 5672 5676 5680 5685 5688 5689 5692 5695 5698 5701 5704 5708 5712 5715 5717 5717 5718 5722 5727 5732 5736 5739 5742 5744 5748 5753 5755 5757 5760 5763 5765 5766 5767 5769 5772 5774 5775 5777 5779 5779 5778 5778 5780 5781 5783 5784 5784 5785 5786 5787 5787 5789 5791 5792 5794 5795 5796 5796 5796 5796 5796 5796 5796 5796 5795 5795 5795 5795 5795 5795 5794 5793 5792 5791 5790 5789 5788
5624 5628 5634 5638 5643 5649 5655 5659 5664 5668 5672 5677 5682 5684 5686 5690 5693 5697 5701 5704 5708 5710 5712 5713 5714 5716 5721 5726 5731 5735 5738 5740 5742 5745 5750 5753 5755 5757 5759 5761 5762 5764 5767 5769 5771 5772 5774 5776 5777 5777 5777 5778 5779 5781 5782 5782 5783 5785 5785 5785 5787 5789 5790 5791 5792 5793 5793 5794 5794 5794 5794 5793 5793 5793 5792 5792 5792 5792 5792 5792 5791 5790 5788 5787 5786 5785
5621 5627 5633 5637 5641 5647 5653 5657 5661 5665 5668 5672 5676 5679 5683 5687 5691 5696 5700 5702 5704 5706 5709 5710 5711 5715 5720 5724 5729 5732 5735 5738 5740 5743 5748 5751 5753 5755 5756 5758 5760 5762 5765 5766 5768 5770 5771 5773 5774 5774 5774 5776 5777 5778 5779 5780 5782 5783 5782 5783 5785 5787 5788 5789 5790 5790 5790 5791 5791 5791 5791 5790 5790 5790 5789 5789 5789 5789 5789 5789 5788 5787 5785 5784 5783 5782
5620 5625 5630 5634 5638 5645 5650 5655 5659 5663 5667 5671 5674 5677 5682 5686 5690 5693 5696 5698 5700 5703 5706 5708 5709 5714 5718 5721 5726 5730 5733 5736 5739 5742 5746 5749 5751 5752 5754 5756 5759 5761 5762 5764 5765 5767 5768 5770 5771 5771 5773 5774 5775 5777 5778 5779 5781 5781 5781 5783 5784 5785 5786 5787 5787 5787 5787 5788 5788 5788 5788 5788 5787 5787 5787 5787 5787 5786 5786 5785 5785 5784 5783 5781 5780 5779
5618 5623 5627 5631 5637 5642 5647 5650 5654 5658 5663 5669 5672 5676 5680 5684 5686 5688 5690 5693 5696 5699 5703 5705 5707 5711 5715 5719 5725 5729 5732 5735 5738 5740 5744 5746 5749 5751 5753 5755 5757 5759 5760 5761 5762 5763 5765 5766 5767 5769 5771 5772 5774 5776 5777 5778 5780 5780 5780 5781 5782 5783 5784 5784 5785 5785 5785 5785 5785 5785 5785 5785 5784 5784 5784 5784 5784 5783 5783 5782 5781 5781 5780 5779 5777 5776
5615 5620 5625 5629 5634 5639 5642 5645 5650 5655 5659 5663 5666 5671 5677 5681 5683 5686 5689 5691 5694 5698 5701 5703 5705 5708 5713 5718 5723 5728 5731 5734 5737 5739 5742 5745 5747 5749 5751 5754 5756 5757 5758 5758 5759 5760 5761 5762 5764 5767 5769 5771 5773 5774 5774 5776 5777 5776 5777 5778 5779 5780 5781 5782 5782 5782 5782 5782 5782 5782 5782 5782 5781 5781 5781 5781 5781 5781 5780 5779 5779 5778 5777 5776 5774 5773
5614 5619 5622 5626 5630 5634 5638 5643 5648 5653 5656 5659 5662 5666 5671 5674 5678 5683 5687 5689 5693 5696 5699 5701 5703 5707 5713 5717 5722 5726 5729 5733 5735 5738 5740 5742 5745 5747 5749 5752 5753 5754 5755 5755 5756 5757 5758 5760 5763 5766 5767 5768 5770 5771 5772 5773 5773 5773 5774 5775 5776 5777 5778 5779 5779 5779 5779 5780 5780 5779 5779 5779 5779 5778 5778 5778 5778 5778 5777 5777 5776 5775 5774 5773 5771 5770
5612 5617 5620 5624 5628 5632 5637 5643 5648 5651 5655 5660 5663 5666 5670 5672 5675 5679 5681 5685 5689 5693 5695 5697 5701 5707 5712 5715 5720 5723 5727 5731 5733 5735 5738 5740 5743 5745 5747 5749 5750 5751 5751 5752 5754 5755 5755 5758 5762 5763 5763 5765 5766 5767 5769 5770 5770 5771 5772 5773 5774 5775 5775 5776 5776 5777 5777 5777 5777 5776 5776 5776 5776 5776 5776 5775 5775 5775 5775 5774 5773 5772 5771 5770 5768 5767
5610 5614 5618 5622 5627 5632 5637 5641 5645 5649 5653 5658 5662 5666 5669 5671 5674 5676 5679 5683 5687 5689 5692 5695 5699 5704 5709 5713 5717 5720 5723 5728 5730 5733 5736 5738 5740 5743 5744 5746 5747 5748 5748 5750 5753 5753 5753 5757 5760 5761 5761 5762 5763 5764 5766 5767 5768 5769 5770 5771 5771 5772 5772 5773 5773 5774 5774 5774 5774 5774 5774 5773 5773 5773 5773 5773 5773 5772 5772 5771 5770 5769 5768 5767 5765 5764
5608 5612 5616 5620 5625 5630 5634 5638 5642 5646 5649 5653 5657 5661 5665 5668 5672 5675 5678 5683 5686 5687 5690 5693 5697 5701 5706 5710 5713 5716 5720 5724 5727 5731 5733 5735 5738 5740 5742 5743 5745 5745 5746 5750 5753 5752 5753 5756 5758 5760 5761 5761 5761 5762 5763 5764 5765 5766 5767 5768 5768 5769 5770 5770 5771 5771 5771 5770 5771 5771 5771 5771 5771 5770 5770 5770 5770 5769 5769 5768 5767 5766 5765 5764 5762 5761
5607 5611 5614 5618 5622 5626 5630 5633 5637 5641 5645 5649 5653 5658 5662 5666 5670 5673 5675 5679 5682 5684 5688 5691 5695 5699 5704 5707 5710 5713 5717 5720 5724 5727 5730 5732 5735 5737 5739 5741 5742 5743 5743 5746 5749 5750 5751 5753 5755 5758 5759 5759 5759 5759 5761 5762 5762 5763 5764 5764 5765 5766 5767 5767 5768 5768 5768 5767 5768 5768 5768 5768 5768 5768 5768 5767 5767 5766 5766 5765 5764 5763 5762 5761 5759 5758
5606 5609 5613 5616 5620 5623 5626 5629 5634 5638 5642 5646 5651 5656 5660 5663 5666 5669 5672 5674 5677 5680 5684 5687 5692 5697 5701 5704 5708 5711 5714 5717 5721 5724 5727 5729 5731 5734 5736 5738 5739 5740 5740 5742 5745 5747 5749 5750 5752 5754 5755 5756 5757 5757 5758 5759 5759 5760 5760 5761 5762 5763 5764 5764 5765 5764 5764 5765 5765 5765 5765 5765 5765 5765 5765 5765 5764 5764 5763 5762 5761 5760 5759 5758 5756 5755
5604 5608 5612 5616 5620 5623 5626 5630 5634 5638 5641 5645 5649 5653 5657 5660 5664 5667 5669 5671 5675 5678 5681 5684 5689 5694 5698 5701 5705 5708 5712 5715 5718 5720 5723 5726 5728 5731 5734 5736 5737 5738 5738 5739 5742 5745 5746 5748 5750 5751 5752 5753 5754 5754 5755 5755 5756 5757 5757 5758 5759 5760 5761 5761 5761 5761 5761 5762 5762 5762 5762 5763 5762 5762 5762 5761 5761 5761 5760 5759 5758 5757 5756 5755 5753 5752
5603 5607 5610 5614 5618 5621 5625 5629 5633 5637 5640 5644 5648 5651 5655 5658 5661 5664 5666 5669 5674 5676 5679 5682 5687 5691 5695 5699 5703 5706 5709 5712 5715 5718 5720 5723 5726 5729 5732 5734 5736 5736 5736 5738 5741 5744 5745 5746 5748 5749 5750 5751 5751 5752 5752 5752 5753 5754 5754 5755 5756 5757 5758 5758 5758 5758 5758 5759 5759 5759 5759 5759 5759 5759 5759 5759 5758 5758 5757 5756 5755 5754 5753 5752 5750 5749
5602 5606 5609 5613 5616 5619 5623 5627 5632 5636 5639 5642 5646 5650 5653 5656 5659 5662 5665 5669 5672 5674 5678 5682 5685 5689 5693 5697 5700 5703 5706 5709 5712 5715 5717 5719 5722 5725 5729 5731 5733 5734 5735 5736 5739 5741 5742 5744 5745 5747 5748 5748 5749 5749 5748 5749 5750 5751 5752 5753 5753 5754 5754 5755 5755 5755 5755 5756 5756 5756 5756 5756 5756 5756 5756 5756 5755 5755 5754 5753 5752 5751 5750 5748 5747 5746
5601 5604 5608 5612 5615 5617 5621 5625 5629 5633 5637 5641 5645 5648 5651 5654 5657 5660 5664 5666 5669 5672 5676 5680 5682 5686 5690 5693 5696 5699 5702 5705 5708 5710 5713 5716 5719 5722 5725 5727 5730 5732 5733 5734 5736 5738 5739 5741 5742 5744 5745 5746 5746 5745 5744 5746 5747 5748 5749 5749 5750 5750 5751 5751 5752 5752 5752 5753 5753 5753 5753 5753 5754 5754 5753 5753 5752 5751 5751 5749 5748 5747 5746 5745 5744 5743
5599 5603 5607 5610 5614 5616 5619 5623 5627 5630 5634 5638 5642 5646 5649 5652 5655 5658 5661 5663 5666 5670 5673 5676 5679 5683 5686 5689 5693 5696 5699 5702 5704 5707 5710 5713 5715 5718 5721 5723 5726 5728 5730 5732 5734 5735 5736 5738 5739 5740 5741 5742 5742 5740 5741 5743 5745 5746 5746 5746 5746 5747 5747 5748 5749 5749 5749 5749 5750 5750 5750 5751 5751 5751 5750 5750 5749 5748 5747 5746 5745 5744 5743 5742 5741 5740
5599 5602 5605 5609 5612 5615 5618 5621 5625 5628 5632 5635 5639 5643 5647 5650 5653 5656 5658 5661 5664 5667 5670 5674 5677 5681 5684 5687 5690 5693 5696 5699 5701 5704 5707 5710 5713 5715 5718 5720 5722 5724 5726 5728 5730 5731 5733 5735 5736 5736 5737 5738 5737 5736 5737 5740 5741 5742 5742 5742 5742 5743 5744 5745 5745 5746 5746 5746 5747 5747 5747 5748 5748 5748 5747 5746 5746 5745 5744 5743 5742 5741 5740 5739 5738 5737
5598 5602 5605 5608 5611 5614 5617 5621 5624 5627 5629 5632 5636 5640 5643 5647 5650 5653 5656 5659 5662 5665 5668 5672 5676 5679 5681 5684 5687 5689 5693 5696 5699 5702 5704 5707 5710 5712 5714 5716 5718 5720 5722 5723 5724 5726 5729 5731 5732 5732 5732 5732 5732 5732 5733 5735 5736 5737 5738 5738 5739 5740 5741 5741 5742 5742 5743 5743 5744 5744 5744 5745 5745 5744 5744 5743 5742 5741 5740 5739 5738 5737 5736 5735 5734 5734
5598 5601 5604 5607 5610 5612 5616 5620 5623 5625 5627 5631 5635 5638 5641 5644 5647 5650 5653 5656 5659 5663 5666 5670 5673 5675 5678 5681 5683 5686 5689 5692 5696 5698 5701 5703 5705 5708 5710 5712 5714 5716 5718 5719 5720 5722 5725 5726 5727 5728 5728 5728 5728 5728 5729 5730 5732 5733 5734 5735 5736 5737 5738 5738 5739 5739 5740 5740 5740 5741 5741 5742 5741 5741 5740 5739 5739 5738 5737 5736 5735 5734 5733 5732 5731 5730
5598 5600 5603 5606 5609 5611 5614 5617 5620 5622 5626 5630 5633 5636 5639 5642 5644 5647 5650 5653 5657 5661 5664 5667 5670 5672 5675 5678 5680 5682 5685 5688 5691 5694 5696 5699 5702 5705 5707 5708 5709 5712 5714 5716 5717 5718 5720 5722 5722 5722 5723 5724 5724 5724 5725 5726 5728 5729 5731 5732 5733 5734 5734 5735 5735 5736 5736 5737 5737 5738 5738 5738 5738 5737 5737 5736 5735 5734 5733 5732 5731 5730 5729 5729 5728 5727
5597 5600 5602 5605 5607 5609 5612 5615 5618 5621 5625 5628 5630 5634 5637 5640 5643 5646 5649 5652 5655 5658 5662 5664 5667 5669 5672 5675 5677 5679 5682 5685 5688 5690 5693 5695 5698 5700 5703 5705 5706 5707 5710 5711 5712 5714 5716 5717 5718 5718 5719 5720 5720 5721 5722 5723 5725 5726 5727 5728 5729 5730 5731 5732 5732 5733 5733 5733 5734 5734 5734 5734 5734 5734 5733 5732 5732 5731 5730 5729 5728 5727 5726 5725 5724 5724
5596 5598 5601 5604 5606 5608 5611 5614 5616 5619 5623 5626 5629 5632 5636 5639 5642 5644 5647 5650 5653 5656 5659 5661 5664 5667 5670 5672 5674 5677 5680 5682 5685 5687 5690 5692 5694 5695 5698 5700 5702 5704 5706 5707 5708 5710 5712 5713 5714 5715 5716 5716 5716 5717 5719 5720 5721 5723 5724 5725 5726 5727 5727 5728 5729 5729 5730 5730 5730 5731 5731 5731 5730 5730 5729 5729 5728 5727 5726 5725 5724 5723 5723 5722 5721 5720
5595 5597 5599 5602 5605 5607 5610 5612 5614 5616 5620 5624 5627 5631 5634 5637 5639 5642 5644 5647 5650 5653 5656 5659 5661 5664 5667 5670 5672 5674 5677 5679 5681 5684 5687 5689 5691 5693 5695 5697 5700 5702 5703 5703 5705 5706 5707 5709 5710 5711 5711 5711 5712 5714 5715 5717 5718 5719 5721 5722 5723 5723 5724 5725 5726 5726 5726 5727 5727 5727 5727 5727 5727 5726 5726 5725 5724 5723 5722 5721 5721 5720 5719 5719 5718 5717
5594 5596 5598 5600 5602 5605 5608 5610 5612 5615 5619 5623 5625 5628 5631 5634 5637 5639 5641 5643 5647 5650 5653 5656 5659 5661 5664 5667 5670 5672 5674 5676 5679 5682 5685 5687 5689 5691 5693 5695 5697 5699 5700 5701 5702 5703 5704 5706 5707 5708 5708 5707 5708 5710 5712 5713 5715 5716 5717 5718 5719 5720 5721 5722 5722 5723 5723 5724 5724 5724 5723 5723 5723 5722 5722 5721 5720 5719 5718 5718 5717 5716 5716 5715 5715 5714
5593 5595 5596 5598 5600 5603 5606 5608 5611 5614 5617 5621 5623 5626 5629 5632 5634 5635 5636 5640 5645 5648 5651 5654 5657 5659 5661 5664 5667 5669 5671 5675 5678 5680 5682 5684 5686 5688 5690 5692 5694 5696 5697 5697 5698 5699 5701 5702 5703 5704 5704 5703 5704 5706 5708 5710 5711 5713 5714 5715 5716 5717 5718 5719 5719 5720 5720 5720 5720 5720 5720 5720 5719 5718 5718 5717 5716 5716 5715 5714 5714 5713 5712 5712 5712 5711
5592 5594 5596 5598 5600 5602 5605 5607 5609 5612 5615 5618 5621 5624 5626 5628 5629 5631 5634 5639 5644 5646 5648 5651 5654 5656 5658 5661 5664 5667 5669 5672 5675 5677 5678 5680 5683 5685 5687 5689 5691 5693 5694 5694 5695 5696 5697 5698 5699 5700 5701 5701 5702 5704 5705 5707 5708 5710 5711 5712 5713 5714 5715 5716 5716 5716 5716 5717 5716 5716 5716 5716 5715 5715 5714 5713 5713 5712 5712 5711 5710 5710 5709 5709 5709 5708
5590 5592 5595 5597 5599 5601 5603 5605 5607 5610 5613 5616 5618 5621 5623 5625 5627 5630 5635 5639 5641 5643 5645 5648 5650 5653 5655 5657 5660 5663 5666 5669 5671 5673 5675 5677 5679 5681 5683 5685 5686 5688 5690 5691 5692 5692 5693 5694 5695 5697 5698 5699 5700 5701 5702 5704 5705 5707 5708 5709 5710 5711 5712 5712 5713 5713 5713 5713 5713 5712 5712 5712 5712 5711 5711 5710 5709 5709 5708 5708 5707 5707 5706 5706 5705 5705
5589 5591 5593 5596 5598 5600 5602 5604 5606 5609 5611 5613 5616 5619 5621 5623 5626 5629 5632 5635 5637 5640 5642 5644 5647 5649 5652 5654 5656 5659 5662 5665 5667 5669 5671 5674 5676 5678 5680 5681 5682 5684 5686 5687 5688 5689 5689 5690 5692 5694 5695 5696 5697 5698 5699 5701 5702 5704 5705 5706 5707 5708 5709 5709 5709 5709 5709 5709 5709 5709 5709 5709 5708 5708 5707 5706 5706 5705 5705 5705 5704 5704 5703 5702 5702 5702
5588 5590 5592 5594 5596 5598 5601 5603 5606 5608 5609 5611 5613 5616 5619 5621 5624 5626 5629 5631 5634 5637 5639 5641 5644 5646 5648 5651 5653 5656 5658 5661 5663 5666 5668 5671 5674 5675 5676 5677 5678 5680 5681 5682 5683 5685 5686 5687 5689 5691 5692 5693 5694 5695 5697 5698 5700 5701 5703 5704 5705 5705 5705 5706 5706 5706 5706 5706 5706 5706 5706 5705 5705 5704 5703 5703 5702 5702 5702 5702 5701 5701 5700 5699 5699 5699
5587 5589 5591 5593 5595 5597 5600 5602 5604 5606 5607 5608 5611 5614 5616 5619 5621 5624 5626 5629 5631 5633 5636 5638 5641 5643 5645 5648 5650 5652 5655 5657 5660 5662 5665 5668 5671 5672 5672 5673 5675 5676 5677 5678 5679 5681 5683 5684 5686 5688 5689 5690 5691 5693 5694 5696 5697 5699 5700 5701 5702 5702 5702 5703 5703 5703 5703 5703 5703 5703 5702 5702 5701 5700 5700 5699 5699 5699 5699 5698 5698 5698 5697 5697 5696 5696
5586 5588 5589 5591 5593 5596 5598 5600 5602 5604 5605 5607 5609 5611 5614 5617 5619 5621 5624 5626 5628 5630 5633 5635 5637 5639 5642 5644 5647 5649 5651 5654 5656 5659 5661 5664 5666 5668 5669 5670 5671 5673 5674 5674 5675 5677 5679 5682 5683 5685 5686 5687 5689 5690 5692 5694 5695 5696 5697 5698 5699 5699 5699 5700 5700 5700 5700 5700 5700 5699 5699 5698 5698 5697 5697 5696 5696 5696 5695 5695 5695 5694 5694 5694 5694 5693
5585 5587 5588 5589 5591 5594 5596 5598 5600 5602 5603 5605 5607 5609 5613 5615 5617 5619 5621 5623 5625 5628 5630 5631 5634 5636 5638 5641 5643 5646 5648 5650 5652 5655 5658 5660 5662 5664 5665 5666 5667 5669 5670 5671 5673 5675 5677 5679 5680 5682 5683 5685 5687 5688 5690 5691 5693 5694 5695 5695 5696 5696 5696 5696 5696 5697 5696 5696 5696 5696 5695 5695 5695 5694 5694 5693 5693 5692 5692 5692 5692 5691 5691 5691 5691 5691
5584 5586 5587 5588 5590 5592 5594 5597 5599 5600 5602 5604 5606 5608 5611 5614 5616 5617 5619 5621 5623 5625 5627 5629 5631 5634 5636 5638 5640 5642 5645 5647 5649 5651 5654 5656 5658 5660 5662 5663 5663 5665 5667 5669 5671 5673 5674 5676 5678 5680 5681 5683 5685 5686 5688 5689 5690 5691 5691 5692 5692 5693 5693 5693 5693 5693 5693 5693 5693 5693 5692 5692 5692 5691 5691 5690 5690 5689 5689 5689 5689 5689 5689 5689 5689 5688
5582 5584 5585 5586 5588 5590 5592 5595 5597 5598 5600 5602 5604 5606 5609 5611 5614 5616 5618 5620 5622 5623 5625 5627 5629 5632 5634 5636 5638 5640 5643 5645 5647 5649 5651 5653 5656 5657 5658 5659 5660 5662 5665 5667 5669 5671 5672 5674 5676 5678 5679 5681 5682 5684 5685 5686 5687 5687 5688 5689 5689 5689 5689 5689 5690 5690 5690 5690 5690 5689 5689 5689 5689 5688 5688 5687 5687 5686 5686 5686 5686 5686 5686 5686 5686 5685
5580 5581 5583 5584 5585 5587 5589 5591 5593 5595 5597 5599 5602 5604 5606 5609 5611 5614 5616 5618 5620 5622 5623 5625 5627 5629 5632 5634 5636 5638 5640 5643 5645 5647 5648 5650 5652 5654 5655 5657 5658 5660 5662 5664 5667 5669 5671 5672 5674 5676 5677 5678 5680 5681 5682 5683 5684 5684 5685 5685 5685 5686 5686 5686 5686 5686 5687 5687 5686 5686 5686 5686 5685 5685 5685 5684 5684 5684 5684 5684 5684 5684 5684 5683 5683 5682
5579 5580 5581 5582 5584 5585 5586 5588 5590 5593 5595 5597 5599 5602 5604 5607 5609 5611 5613 5616 5618 5620 5621 5623 5625 5627 5629 5631 5633 5636 5638 5640 5643 5644 5646 5648 5650 5651 5653 5655 5657 5659 5661 5663 5665 5667 5669 5670 5672 5673 5675 5676 5677 5678 5679 5680 5681 5681 5681 5682 5682 5683 5683 5683 5683 5683 5683 5683 5683 5683 5683 5683 5683 5682 5682 5682 5682 5682 5682 5682 5681 5681 5681 5680 5680 5679